STARLINK-32661, 62899

Orbit data source: Space-Track

STARLINK-32661, 62899 is a payload satellite owned by SpaceX/Seattle (US) in LEO that was launched on Tue, 04 Feb 2025 UTC via an FALCON 9 launch vehicle from the Air Force Eastern Test Range (AFETR). Payload-class satellites include a variety of spacecraft equipped with specific instruments for various scientific and technological missions. These include communications satellites like Starlink; space stations such as the ISS; scientific satellites like the Hubble; Earth observation satellites from companies like Planet Labs, Umbra, and HawkEye 360; GPS; miniature CubeSats for education and research; and military/defense satellites.

Loading next visibility...
Identifier
62899, 2025-024W
Orbit
LEO
Country
Flag of USUS
Related business
Manufacturer
SpaceX/Seattle
Mission
Operational Commercial Communications
Bus & Motor
STARLINK V2M, Unknown motor
Mass
730 kg wet, ~700 kg dry
Launch date (UTC)
2025-02-04 (1 year ago)
Launch vehicle
FALCON 9
Launch site
Air Force Eastern Test Range (AFETR)
Object type
Payload
Rocket body
Debris
Shape & HBR
Box + 2 Pan, 17.7 m
Radar Cross Section
33.884 m², Large (>1 m²)

Expand to show TLE details & history
Last TLE update: 11 hours ago

TLE from 11 hours ago
0 STARLINK-32661
1 62899U 25024W   26130.00282314  .00002769  00000-0  11013-3 0  9992
2 62899  43.0018 339.0433 0001281 262.9540  97.1166 15.27574736 71642
Epoch: 2026-05-10T00:04Z
TLE epoch observation values (Epoch: 2026-05-10T00:04:03.919Z)
Latitude
-0.00001°
Longitude
110.21481°
Altitude
482.949 km
Speed
7.626 km/s
True Right ascension
22h 36m 10s
True Declination
0° 00' 00"
Sunlit
Object was in daylight at epoch
Visualization orbit readout
Latitude
Unknown
Longitude
Unknown
Altitude
Unknown
Speed
Unknown
Apparent Right ascension
Unknown
Apparent Declination
Unknown
Sunlit
N/A
Visualization observer readout
Local Sidereal Time
19:36:59
Azimuth
Unknown
Elevation
Unknown
Doppler factor
Unknown
Orbital elements
Apogee altitude
485.889 km
Perigee altitude
484.131 km
Semi-major axis
6,863.147 km
Eccentricity
0.00013
Inclination
43.0018°
RAAN
339.0433°
Arg. of periapsis
262.954°
True anomaly
97.13117°
Mean anomaly
97.1166°
Eccentric anomaly
97.12388°
Mean motion
3.81732 °/min
Orbital period
94.31 mins
BSTAR
0.00011013
Loading maneuver chart data...
Computing Atmospheric mass density...
Loading historical data...
Loading historical data...
Loading historical data...
Loading historical data...
Loading historical data...
Loading historical data...
Loading historical data...

Documentation

Showing up to 5 results
|